| time (UTC) | temp F | wind direction | speed MPH | gust MPH | rain 1hr in | rain 24hr in | rain mn in | humidity % | barometer mb |
| 20260506035003 | 48 | 0 | 0.0 | 0.0 | 0.05 | 0.39 | 0.39 | 100 | 1010.3 |
| 20260506034214 | 48 | 0 | 0.0 | 0.0 | 0.06 | 0.39 | 0.39 | 100 | 1010.3 |
| 20260506033004 | 48 | 0 | 0.0 | 0.0 | 0.05 | 0.37 | 0.37 | 99 | 1010.7 |
| 20260506032004 | 48 | 0 | 0.0 | 0.0 | 0.07 | 0.37 | 0.37 | 99 | 1010.3 |
| 20260506031004 | 48 | 0 | 0.0 | 0.0 | 0.08 | 0.35 | 0.35 | 100 | 1010.5 |
| 20260506030004 | 48 | 0 | 0.0 | 0.0 | 0.09 | 0.35 | 0.35 | 99 | 1010.3 |
| 20260506025004 | 48 | 360 | 0.0 | 2.0 | 0.09 | 0.34 | 0.34 | 98 | 1010.6 |
| 20260506024003 | 48 | 0 | 0.0 | 0.0 | 0.11 | 0.33 | 0.33 | 99 | 1010.7 |
| 20260506023003 | 48 | 0 | 0.0 | 0.0 | 0.11 | 0.32 | 0.32 | 97 | 1010.7 |
| 20260506022003 | 48 | 360 | 0.0 | 3.0 | 0.09 | 0.30 | 0.30 | 97 | 1010.8 |
| 20260506021006 | 48 | 360 | 0.0 | 4.0 | 0.07 | 0.27 | 0.27 | 96 | 1010.8 |
| 20260506020004 | 48 | 0 | 0.0 | 2.0 | 0.06 | 0.26 | 0.26 | 96 | 1010.7 |
| 20260506015005 | 48 | 360 | 0.0 | 3.0 | 0.06 | 0.25 | 0.25 | 95 | 1010.1 |
| 20260506014004 | 48 | 360 | 0.0 | 2.0 | 0.04 | 0.22 | 0.22 | 93 | 1010.3 |
| 20260506013004 | 48 | 360 | 0.0 | 3.0 | 0.02 | 0.21 | 0.21 | 92 | 1010.4 |
| 20260506012005 | 48 | 360 | 1.0 | 4.0 | 0.04 | 0.20 | 0.20 | 90 | 1010.6 |
| 20260506011006 | 49 | 360 | 1.0 | 6.0 | 0.04 | 0.20 | 0.20 | 89 | 1010.5 |
| 20260506010005 | 49 | 360 | 2.0 | 8.0 | 0.04 | 0.20 | 0.20 | 88 | 1010.4 |
| 20260506005004 | 50 | 360 | 3.0 | 9.0 | 0.02 | 0.19 | 0.19 | 84 | 1010.1 |
| 20260506004005 | 51 | 360 | 3.0 | 11.0 | 0.02 | 0.19 | 0.19 | 79 | 1010.0 |
| 20260506003004 | 54 | 360 | 4.0 | 11.0 | 0.02 | 0.19 | 0.19 | 71 | 1010.1 |
| 20260506002005 | 55 | 360 | 4.0 | 10.0 | 0.00 | 0.17 | 0.17 | 65 | 1009.9 |
| 20260506001215 | 56 | 360 | 5.0 | 13.0 | 0.00 | 0.17 | 0.17 | 64 | 1009.4 |
| 20260506000004 | 57 | 360 | 5.0 | 12.0 | 0.00 | 0.17 | 0.17 | 64 | 1009.3 |
| 20260505235003 | 58 | 360 | 6.0 | 13.0 | 0.00 | 0.17 | 0.17 | 65 | 1008.9 |
| 20260505234003 | 58 | 360 | 5.0 | 12.0 | 0.00 | 0.17 | 0.17 | 66 | 1008.7 |
| 20260505233005 | 59 | 360 | 7.0 | 14.0 | 0.00 | 0.17 | 0.17 | 65 | 1008.3 |
| 20260505232213 | 60 | 360 | 6.0 | 13.0 | 0.00 | 0.17 | 0.17 | 64 | 1008.2 |
| 20260505231005 | 61 | 360 | 4.0 | 11.0 | 0.00 | 0.17 | 0.17 | 63 | 1007.9 |
| 20260505230217 | 62 | 360 | 5.0 | 11.0 | 0.00 | 0.17 | 0.17 | 65 | 1007.5 |
| 20260505225003 | 62 | 360 | 4.0 | 10.0 | 0.00 | 0.17 | 0.17 | 66 | 1007.3 |
| 20260505224003 | 63 | 360 | 2.0 | 6.0 | 0.00 | 0.17 | 0.17 | 69 | 1007.0 |
| 20260505223214 | 63 | 360 | 3.0 | 9.0 | 0.00 | 0.17 | 0.17 | 69 | 1006.8 |
| 20260505222003 | 64 | 360 | 2.0 | 5.0 | 0.00 | 0.17 | 0.17 | 67 | 1006.5 |
| 20260505221006 | 64 | 360 | 3.0 | 5.0 | 0.00 | 0.17 | 0.17 | 69 | 1006.1 |
| 20260505220003 | 65 | 360 | 4.0 | 10.0 | 0.00 | 0.17 | 0.17 | 69 | 1006.2 |
| 20260505215003 | 66 | 360 | 4.0 | 12.0 | 0.00 | 0.17 | 0.17 | 72 | 1006.2 |
| 20260505214003 | 66 | 360 | 1.0 | 5.0 | 0.01 | 0.17 | 0.17 | 87 | 1006.0 |
| 20260505213004 | 64 | 360 | 2.0 | 10.0 | 0.01 | 0.17 | 0.17 | 87 | 1005.6 |
| 20260505212003 | 63 | 360 | 3.0 | 8.0 | 0.01 | 0.17 | 0.17 | 86 | 1005.4 |
| 20260505211003 | 64 | 360 | 2.0 | 8.0 | 0.01 | 0.17 | 0.17 | 83 | 1005.5 |
| 20260505210004 | 65 | 360 | 2.0 | 7.0 | 0.01 | 0.17 | 0.17 | 81 | 1005.4 |
| 20260505205004 | 66 | 360 | 3.0 | 10.0 | 0.01 | 0.17 | 0.17 | 76 | 1005.2 |
| 20260505204214 | 69 | 360 | 2.0 | 10.0 | 0.00 | 0.15 | 0.15 | 70 | 1005.4 |
| 20260505203218 | 69 | 360 | 1.0 | 5.0 | 0.00 | 0.15 | 0.15 | 65 | 1005.0 |
| 20260505202004 | 70 | 360 | 2.0 | 8.0 | 0.00 | 0.15 | 0.15 | 66 | 1004.9 |
| 20260505201005 | 71 | 360 | 2.0 | 4.0 | 0.00 | 0.15 | 0.15 | 65 | 1005.2 |
| 20260505200004 | 71 | 360 | 2.0 | 7.0 | 0.00 | 0.15 | 0.15 | 66 | 1005.1 |
| 20260505195004 | 70 | 360 | 3.0 | 8.0 | 0.00 | 0.15 | 0.15 | 65 | 1005.2 |
| 20260505194215 | 70 | 360 | 3.0 | 9.0 | 0.00 | 0.15 | 0.15 | 67 | 1005.1 |
| 20260505193005 | 69 | 360 | 3.0 | 10.0 | 0.01 | 0.15 | 0.15 | 72 | 1005.1 |
| 20260505192004 | 67 | 360 | 2.0 | 8.0 | 0.02 | 0.15 | 0.15 | 78 | 1005.1 |
| 20260505191005 | 67 | 360 | 3.0 | 8.0 | 0.04 | 0.15 | 0.15 | 82 | 1005.1 |
| 20260505190005 | 64 | 360 | 3.0 | 8.0 | 0.09 | 0.15 | 0.15 | 86 | 1005.2 |
| 20260505185213 | 63 | 360 | 3.0 | 9.0 | 0.11 | 0.15 | 0.15 | 87 | 1005.1 |
| 20260505184005 | 61 | 360 | 2.0 | 6.0 | 0.12 | 0.15 | 0.15 | 87 | 1005.2 |
| 20260505183003 | 61 | 360 | 6.0 | 21.0 | 0.13 | 0.14 | 0.14 | 85 | 1005.2 |
| 20260505182003 | 62 | 360 | 5.0 | 20.0 | 0.12 | 0.13 | 0.13 | 83 | 1005.9 |
| 20260505181005 | 63 | 360 | 4.0 | 13.0 | 0.09 | 0.11 | 0.11 | 77 | 1005.7 |
| 20260505180005 | 65 | 360 | 2.0 | 11.0 | 0.05 | 0.06 | 0.06 | 74 | 1005.2 |
| 20260505175004 | 66 | 360 | 3.0 | 11.0 | 0.02 | 0.04 | 0.04 | 70 | 1004.7 |
| 20260505174004 | 65 | 360 | 2.0 | 3.0 | 0.02 | 0.04 | 0.04 | 71 | 1004.5 |
| 20260505173003 | 71 | 360 | 4.0 | 6.0 | 0.00 | 0.01 | 0.01 | 53 | 1004.5 |
| 20260505172004 | 71 | 360 | 4.0 | 10.0 | 0.00 | 0.01 | 0.01 | 53 | 1004.8 |
| 20260505171003 | 72 | 360 | 5.0 | 15.0 | 0.00 | 0.01 | 0.01 | 48 | 1004.3 |
| 20260505170003 | 72 | 360 | 6.0 | 15.0 | 0.00 | 0.01 | 0.01 | 47 | 1004.5 |
| 20260505165004 | 72 | 360 | 3.0 | 10.0 | 0.00 | 0.01 | 0.01 | 48 | 1004.5 |
| 20260505164216 | 72 | 360 | 3.0 | 10.0 | 0.00 | 0.01 | 0.01 | 48 | 1004.3 |
| 20260505163003 | 73 | 360 | 4.0 | 15.0 | 0.00 | 0.01 | 0.01 | 47 | 1004.2 |
| 20260505162003 | 73 | 360 | 3.0 | 8.0 | 0.00 | 0.01 | 0.01 | 48 | 1004.2 |
| 20260505161003 | 73 | 360 | 2.0 | 11.0 | 0.00 | 0.01 | 0.01 | 49 | 1004.2 |
| 20260505153004 | 72 | 360 | 6.0 | 20.0 | 0.00 | 0.01 | 0.01 | 48 | 1004.5 |
| 20260505152216 | 72 | 360 | 6.0 | 20.0 | 0.00 | 0.01 | 0.01 | 49 | 1004.6 |
| 20260505151004 | 72 | 360 | 5.0 | 17.0 | 0.00 | 0.01 | 0.01 | 48 | 1004.4 |
| 20260505140213 | 72 | 360 | 6.0 | 20.0 | 0.00 | 0.01 | 0.01 | 49 | 1003.9 |
| 20260505130217 | 70 | 360 | 5.0 | 23.0 | 0.00 | 0.01 | 0.01 | 51 | 1003.9 |
| 20260505125003 | 69 | 360 | 5.0 | 18.0 | 0.00 | 0.01 | 0.01 | 55 | 1004.1 |
| 20260505124005 | 70 | 360 | 4.0 | 11.0 | 0.00 | 0.01 | 0.01 | 54 | 1004.1 |
| 20260505123005 | 69 | 360 | 5.0 | 15.0 | 0.00 | 0.01 | 0.01 | 55 | 1004.0 |
| 20260505122005 | 69 | 360 | 5.0 | 10.0 | 0.00 | 0.01 | 0.01 | 55 | 1004.2 |
| 20260505121003 | 68 | 360 | 7.0 | 21.0 | 0.00 | 0.01 | 0.01 | 56 | 1004.1 |
| 20260505120004 | 67 | 360 | 4.0 | 21.0 | 0.00 | 0.01 | 0.01 | 57 | 1003.9 |
| 20260505115003 | 67 | 360 | 5.0 | 19.0 | 0.00 | 0.01 | 0.01 | 57 | 1004.0 |
| 20260505114003 | 65 | 360 | 4.0 | 16.0 | 0.00 | 0.01 | 0.01 | 61 | 1004.0 |
| 20260505113003 | 64 | 360 | 3.0 | 10.0 | 0.00 | 0.01 | 0.01 | 62 | 1004.0 |
| 20260505112004 | 64 | 360 | 3.0 | 9.0 | 0.00 | 0.01 | 0.01 | 63 | 1003.8 |
| 20260505111006 | 63 | 360 | 3.0 | 10.0 | 0.00 | 0.01 | 0.01 | 63 | 1003.9 |
| 20260505102005 | 62 | 360 | 4.0 | 11.0 | 0.00 | 0.01 | 0.01 | 67 | 1003.4 |
| 20260505101214 | 61 | 360 | 4.0 | 9.0 | 0.00 | 0.01 | 0.01 | 68 | 1003.3 |
| 20260505100003 | 60 | 360 | 3.0 | 9.0 | 0.00 | 0.01 | 0.01 | 72 | 1003.4 |
| 20260505095003 | 60 | 360 | 3.0 | 9.0 | 0.00 | 0.01 | 0.01 | 73 | 1003.4 |
| 20260505094006 | 59 | 360 | 2.0 | 8.0 | 0.00 | 0.01 | 0.01 | 76 | 1003.3 |
| 20260505093213 | 59 | 360 | 2.0 | 6.0 | 0.00 | 0.01 | 0.01 | 77 | 1003.4 |
| 20260505092005 | 59 | 360 | 1.0 | 5.0 | 0.00 | 0.01 | 0.01 | 79 | 1003.4 |
| 20260505091004 | 59 | 360 | 2.0 | 8.0 | 0.00 | 0.01 | 0.01 | 80 | 1003.4 |
| 20260505090004 | 59 | 360 | 1.0 | 7.0 | 0.00 | 0.01 | 0.01 | 83 | 1003.4 |
| 20260505085004 | 59 | 360 | 2.0 | 6.0 | 0.01 | 0.01 | 0.01 | 83 | 1003.4 |
| 20260505084215 | 59 | 360 | 2.0 | 6.0 | 0.01 | 0.01 | 0.01 | 83 | 1003.4 |
| 20260505083004 | 59 | 360 | 3.0 | 7.0 | 0.01 | 0.01 | 0.01 | 80 | 1003.6 |
| 20260505082215 | 60 | 360 | 3.0 | 7.0 | 0.01 | 0.01 | 0.01 | 78 | 1003.8 |
| 20260505081004 | 62 | 360 | 4.0 | 7.0 | 0.01 | 0.01 | 0.01 | 65 | 1004.3 |
| 20260505080004 | 62 | 360 | 4.0 | 12.0 | 0.01 | 0.01 | 0.01 | 65 | 1004.4 |
| 20260505075004 | 62 | 360 | 2.0 | 8.0 | 0.00 | 0.00 | 0.00 | 63 | 1004.0 |
| 20260505074213 | 62 | 360 | 3.0 | 9.0 | 0.00 | 0.00 | 0.00 | 64 | 1004.1 |
| 20260505073004 | 61 | 360 | 2.0 | 7.0 | 0.00 | 0.00 | 0.00 | 66 | 1003.9 |
| 20260505072006 | 61 | 360 | 1.0 | 7.0 | 0.00 | 0.00 | 0.00 | 67 | 1003.9 |
| 20260505071005 | 61 | 360 | 2.0 | 10.0 | 0.00 | 0.00 | 0.00 | 67 | 1004.0 |
| 20260505070004 | 62 | 360 | 2.0 | 10.0 | 0.00 | 0.00 | 0.00 | 66 | 1004.0 |
| 20260505065214 | 62 | 360 | 3.0 | 7.0 | 0.00 | 0.00 | 0.00 | 65 | 1003.9 |
| 20260505064004 | 62 | 360 | 3.0 | 9.0 | 0.00 | 0.00 | 0.00 | 65 | 1003.8 |
| 20260505063005 | 63 | 360 | 4.0 | 11.0 | 0.00 | 0.00 | 0.00 | 63 | 1003.8 |
| 20260505062214 | 63 | 360 | 4.0 | 14.0 | 0.00 | 0.00 | 0.00 | 62 | 1003.8 |
| 20260505061003 | 64 | 360 | 6.0 | 11.0 | 0.00 | 0.00 | 0.00 | 56 | 1003.9 |
| 20260505060005 | 64 | 360 | 4.0 | 11.0 | 0.00 | 0.00 | 0.00 | 54 | 1003.9 |
| 20260505055005 | 65 | 360 | 4.0 | 15.0 | 0.00 | 0.00 | 0.00 | 52 | 1003.9 |
| 20260505054006 | 65 | 360 | 5.0 | 14.0 | 0.00 | 0.00 | 0.00 | 50 | 1003.9 |
| 20260505053003 | 65 | 360 | 4.0 | 21.0 | 0.00 | 0.00 | 0.00 | 48 | 1004.1 |
| 20260505052003 | 65 | 360 | 4.0 | 10.0 | 0.00 | 0.00 | 0.00 | 48 | 1004.1 |
| 20260505051004 | 64 | 360 | 2.0 | 10.0 | 0.00 | 0.00 | 0.00 | 47 | 1004.1 |
| 20260505041005 | 62 | 360 | 2.0 | 3.0 | 0.00 | 0.00 | 0.00 | 48 | 1004.0 |
| 20260505040007 | 62 | 360 | 2.0 | 6.0 | 0.00 | 0.00 | 0.00 | 48 | 1004.0 |
| 20260505035213 | 62 | 360 | 1.0 | 5.0 | 0.00 | 0.00 | 0.00 | 48 | 1004.0 |